Worcester, MA

4:02 AM EDT on October 21, 2017 (GMT -0400)
Worcester Regional

Weather History for KORH - October, 2014

Change the Weather History Date:

Monday, October 27, 2014

  Actual Average Record
Temperature  
Mean Temperature 49 °F 46 °F  
Max Temperature 57 °F 55 °F 81 °F (1963)
Min Temperature 41 °F 38 °F 21 °F (1936)
Degree Days  
Heating Degree Days 16 19  
Month to date heating degree days 335 391  
Since 1 July heating degree days 508 584  
Cooling Degree Days 0 0  
Month to date cooling degree days 3 0  
Year to date cooling degree days 426 468  
Moisture  
Dew Point 37 °F    
Average Humidity 62    
Maximum Humidity 76    
Minimum Humidity 47    
Precipitation  
Precipitation 0.00 in 0.15 in 1.57 in (1943)
Month to date precipitation 6.29 4.12  
Year to date precipitation 44.04 39.41  
Sea Level Pressure  
Sea Level Pressure 29.90 in    
Wind  
Wind Speed 12 mph (WNW)    
Max Wind Speed 26 mph    
Max Gust Speed 35 mph    
Visibility 10 miles    
Events      
T = Trace of Precipitation, MM = Missing Value Source: NWS Daily Summary

Daily Weather History Graph

Daily Weather History Graph

Search for Another Location

Airport or City:

Trip Planner

Search our weather history database for the weather conditions in past years. The results will help you decide how hot, cold, wet, or windy it might be!

Date:

Astronomy

Oct. 27, 2014 Rise Set
Actual Time 7:14 AM EDT 5:47 PM EDT
Civil Twilight 6:45 AM EDT 6:16 PM EDT
Nautical Twilight 6:12 AM EDT 6:49 PM EDT
Astronomical Twilight 5:40 AM EDT 7:21 PM EDT
Moon 10:49 AM EDT (10/27) 8:48 PM EDT (10/27)
Length of Visible Light 11h 30m
Length of Day
10h 33m
Waxing Crescent, 15% of the Moon is Illuminated
Oct 27
Waxing Crescent
Oct 30
First Quarter
Nov 6
Full
Nov 14
Last Quarter
Nov 22
New

Hourly Weather History & Observations

Time (EDT) Temp. Windchill Dew Point Humidity Pressure Visibility Wind Dir Wind Speed Gust Speed Precip Events Conditions
12:54 AM 43.0 °F 36.0 °F 36.0 °F 76% 29.74 in 10.0 mi West 13.8 mph - N/A   Clear
1:54 AM 44.1 °F 38.1 °F 36.0 °F 73% 29.75 in 10.0 mi West 11.5 mph - N/A   Mostly Cloudy
2:54 AM 45.0 °F 38.2 °F 36.0 °F 71% 29.75 in 10.0 mi West 15.0 mph - N/A   Clear
3:54 AM 44.1 °F 38.6 °F 36.0 °F 73% 29.77 in 10.0 mi West 10.4 mph - N/A   Clear
4:54 AM 44.1 °F 37.4 °F 37.0 °F 76% 29.78 in 10.0 mi West 13.8 mph 21.9 mph N/A   Clear
5:54 AM 44.1 °F 39.0 °F 37.0 °F 76% 29.81 in 10.0 mi West 9.2 mph - N/A   Mostly Cloudy
6:54 AM 44.1 °F 37.4 °F 37.0 °F 76% 29.83 in 10.0 mi West 13.8 mph - N/A   Clear
7:54 AM 45.0 °F 38.2 °F 37.0 °F 74% 29.85 in 10.0 mi WNW 15.0 mph - N/A   Clear
8:54 AM 46.9 °F - 37.0 °F 68% 29.87 in 10.0 mi WNW 23.0 mph 29.9 mph N/A   Clear
9:54 AM 50.0 °F - 37.0 °F 61% 29.89 in 10.0 mi WNW 24.2 mph 32.2 mph N/A   Clear
10:54 AM 51.1 °F - 37.0 °F 59% 29.91 in 10.0 mi WNW 18.4 mph 31.1 mph N/A   Clear
11:54 AM 53.1 °F - 37.0 °F 55% 29.94 in 10.0 mi WNW 18.4 mph 26.5 mph N/A   Clear
12:54 PM 55.0 °F - 37.0 °F 51% 29.93 in 10.0 mi West 13.8 mph - N/A   Clear
1:54 PM 55.9 °F - 37.0 °F 49% 29.93 in 10.0 mi West 15.0 mph - N/A   Partly Cloudy
2:54 PM 55.9 °F - 37.0 °F 49% 29.92 in 10.0 mi WNW 11.5 mph 21.9 mph N/A   Clear
3:54 PM 55.9 °F - 36.0 °F 47% 29.94 in 10.0 mi WNW 11.5 mph - N/A   Clear
4:54 PM 55.0 °F - 36.0 °F 49% 29.95 in 10.0 mi WNW 10.4 mph - N/A   Clear
5:54 PM 51.1 °F - 37.0 °F 59% 29.96 in 10.0 mi WNW 8.1 mph - N/A   Clear
6:54 PM 48.9 °F - 37.0 °F 64% 29.99 in 10.0 mi West 8.1 mph - N/A   Clear
7:54 PM 48.0 °F - 37.0 °F 66% 30.00 in 10.0 mi West 10.4 mph - N/A   Clear
8:54 PM 48.0 °F - 37.0 °F 66% 30.01 in 10.0 mi West 8.1 mph - N/A   Clear
9:54 PM 46.9 °F - 37.0 °F 68% 30.04 in 10.0 mi WNW 3.5 mph - N/A   Clear
10:54 PM 45.0 °F 40.1 °F 37.0 °F 74% 30.04 in 10.0 mi West 9.2 mph - N/A   Clear
11:54 PM 46.0 °F 43.1 °F 36.0 °F 68% 30.03 in 10.0 mi West 5.8 mph - N/A   Clear